Tacoma, WA
on Friday, November 9, 2012

Friday
Previous Day Next Day
Daily Summary
 ActualAverage (KSEA)Record (KSEA)
Temperature
Mean Temperature °F / °C 47°F / 8°C  
Max Temperature 47°F / 8°C 52°F / 11°C 64°F / 17°C (1997)
Min Temperature 26°F / -3°C 41°F / 5°C 27°F / -2°C (1948)
Degree Days
Heating Degree Days 28 18  
Month to date heating degree days 155  
Since 1 July heating degree days 752  
Cooling Degree Days 0 0  
Month to date cooling degree days 0  
Year to date cooling degree days 189  
Moisture
Dew Point 29°F / -2°C   
Average Humidity 90    
Maximum Humidity 100    
Minimum Humidity 50    
Precipitation
Precipitation 0.00 in / 0.00 cm 0.21 in / 5.33 cm 2.95 in / 7.49 cm (1990)
Month to date precipitation 1.82  
Year to date precipitation 27.39  
Snow
Snow 0.00 in / 0.00 cm in / cm in / cm ()
Month to date snowfall  
Since 1 July snowfall  
Snow Depth in / cm   
Wind
Wind Speed 1 mph / 2 km/h   
Max Wind Speed 8 mph / 13 km/h   
Max Gust Speed mph / km/h   
Visibility 6 miles / 9 kilometers   
Events Fog   

Key: T is trace of precipitation, MM is missing value
Source: NWS Daily Summary
Time(PST)TemperatureDew PointHumidity Pressure Visibility Wind DirectionWind SpeedGust SpeedPrecipitationEvents Conditions
12:58 AM 30.9°F / -0.6°C 30.0°F / -1.1°C 96% 29.87 in / 1011.4 hPa 10.0 miles / 16.1 kilometers SW 1.2 mph / 1.9 km/h - N/A   Clear
1:58 AM 28.8°F / -1.8°C 28.0°F / -2.2°C 97% 29.88 in / 1011.8 hPa 10.0 miles / 16.1 kilometers WSW 1.2 mph / 1.9 km/h - N/A   Clear
2:23 AM 30.2°F / -1.0°C 28.4°F / -2.0°C 93% 29.86 in / 1011.1 hPa 2.0 miles / 3.2 kilometers South 2.3 mph / 3.7 km/h - N/A   Clear
2:28 AM 30.2°F / -1.0°C 28.4°F / -2.0°C 93% 29.86 in / 1011.1 hPa 1.5 miles / 2.4 kilometers SSE 1.2 mph / 1.9 km/h - N/A   Clear
2:33 AM 28.4°F / -2.0°C 28.4°F / -2.0°C 100% 29.86 in / 1011.1 hPa 3.0 miles / 4.8 kilometers Calm Calm - N/A   Clear
2:58 AM 28.4°F / -2.0°C 27.9°F / -2.3°C 98% 29.88 in / 1011.8 hPa 10.0 miles / 16.1 kilometers South 2.3 mph / 3.7 km/h - N/A   Clear
3:58 AM 27.5°F / -2.5°C 27.0°F / -2.8°C 98% 29.88 in / 1011.8 hPa 10.0 miles / 16.1 kilometers South 4.6 mph / 7.4 km/h - N/A   Clear
4:58 AM 27.7°F / -2.4°C 27.1°F / -2.7°C 98% 29.89 in / 1012.1 hPa 10.0 miles / 16.1 kilometers Calm Calm - N/A   Clear
5:58 AM 26.6°F / -3.0°C 26.2°F / -3.2°C 99% 29.90 in / 1012.5 hPa 10.0 miles / 16.1 kilometers South 1.2 mph / 1.9 km/h - N/A   Clear
6:13 AM 28.4°F / -2.0°C 26.6°F / -3.0°C 93% 29.88 in / 1011.7 hPa 1.8 miles / 2.8 kilometers Variable 1.2 mph / 1.9 km/h - N/A   Clear
6:18 AM 28.4°F / -2.0°C 28.4°F / -2.0°C 100% 29.88 in / 1011.7 hPa 1.5 miles / 2.4 kilometers South 1.2 mph / 1.9 km/h - N/A   Clear
6:28 AM 26.6°F / -3.0°C 26.6°F / -3.0°C 100% 29.88 in / 1011.7 hPa 2.5 miles / 4.0 kilometers Calm Calm - N/A   Clear
6:33 AM 26.6°F / -3.0°C 26.6°F / -3.0°C 100% 29.88 in / 1011.7 hPa 4.0 miles / 6.4 kilometers Calm Calm - N/A   Clear
6:53 AM 28.4°F / -2.0°C 26.6°F / -3.0°C 93% 29.88 in / 1011.7 hPa 2.5 miles / 4.0 kilometers Calm Calm - N/A   Clear
6:58 AM 28.4°F / -2.0°C 26.6°F / -3.0°C 93% 29.91 in / 1012.8 hPa 1.2 miles / 2.0 kilometers Calm Calm - N/A   Clear
7:03 AM 28.4°F / -2.0°C 26.6°F / -3.0°C 93% 29.89 in / 1012.1 hPa 1.2 miles / 2.0 kilometers Calm Calm - N/A   Clear
7:08 AM 28.4°F / -2.0°C 26.6°F / -3.0°C 93% 29.89 in / 1012.1 hPa 1.8 miles / 2.8 kilometers Calm Calm - N/A   Clear
7:13 AM 28.4°F / -2.0°C 28.4°F / -2.0°C 100% 29.89 in / 1012.1 hPa 1.0 miles / 1.6 kilometers Calm Calm - N/A   Clear
7:18 AM 28.4°F / -2.0°C 28.4°F / -2.0°C 100% 29.89 in / 1012.1 hPa 0.5 miles / 0.8 kilometers Calm Calm - N/A Fog Light Freezing Fog
7:23 AM 28.4°F / -2.0°C 28.4°F / -2.0°C 100% 29.89 in / 1012.1 hPa 0.8 miles / 1.2 kilometers Calm Calm - N/A   Clear
7:28 AM 28.4°F / -2.0°C 28.4°F / -2.0°C 100% 29.89 in / 1012.1 hPa 0.8 miles / 1.2 kilometers North 1.2 mph / 1.9 km/h - N/A   Clear
7:33 AM 28.4°F / -2.0°C 28.4°F / -2.0°C 100% 29.89 in / 1012.1 hPa 0.5 miles / 0.8 kilometers Calm Calm - N/A Fog Light Freezing Fog
7:38 AM 28.4°F / -2.0°C 28.4°F / -2.0°C 100% 29.89 in / 1012.1 hPa 0.2 miles / 0.4 kilometers Calm Calm - N/A Fog Light Freezing Fog
7:43 AM 28.4°F / -2.0°C 28.4°F / -2.0°C 100% 29.90 in / 1012.4 hPa 0.2 miles / 0.4 kilometers Calm Calm - N/A Fog Light Freezing Fog
7:48 AM 28.4°F / -2.0°C 28.4°F / -2.0°C 100% 29.90 in / 1012.4 hPa 0.5 miles / 0.8 kilometers South 2.3 mph / 3.7 km/h - N/A Fog Light Freezing Fog
7:53 AM 28.4°F / -2.0°C 28.4°F / -2.0°C 100% 29.90 in / 1012.4 hPa 0.8 miles / 1.2 kilometers SSW 1.2 mph / 1.9 km/h - N/A   Clear
7:58 AM 28.4°F / -2.0°C 28.4°F / -2.0°C 100% 29.92 in / 1013.2 hPa 4.0 miles / 6.4 kilometers SSW 2.3 mph / 3.7 km/h - N/A   Clear
8:03 AM 28.4°F / -2.0°C 28.4°F / -2.0°C 100% 29.90 in / 1012.4 hPa 2.0 miles / 3.2 kilometers South 1.2 mph / 1.9 km/h - N/A   Clear
8:13 AM 28.4°F / -2.0°C 28.4°F / -2.0°C 100% 29.90 in / 1012.4 hPa 6.0 miles / 9.7 kilometers South 1.2 mph / 1.9 km/h - N/A   Clear
8:58 AM 32.9°F / 0.5°C 32.5°F / 0.3°C 99% 29.92 in / 1013.2 hPa 10.0 miles / 16.1 kilometers Calm Calm - N/A   Clear
9:58 AM 40.5°F / 4.7°C 40.1°F / 4.5°C 99% 29.92 in / 1013.1 hPa 10.0 miles / 16.1 kilometers Variable 1.2 mph / 1.9 km/h - N/A   Clear
10:58 AM 45.9°F / 7.7°C 33.1°F / 0.6°C 61% 29.92 in / 1013.1 hPa 10.0 miles / 16.1 kilometers NE 8.1 mph / 13.0 km/h - N/A   Clear
11:58 AM 47.1°F / 8.4°C 33.8°F / 1.0°C 60% 29.92 in / 1013.1 hPa 10.0 miles / 16.1 kilometers North 4.6 mph / 7.4 km/h - N/A   Scattered Clouds
12:58 PM 45.7°F / 7.6°C 32.7°F / 0.4°C 61% 29.91 in / 1012.8 hPa 10.0 miles / 16.1 kilometers NNE 6.9 mph / 11.1 km/h - N/A   Overcast
1:58 PM 47.7°F / 8.7°C 33.1°F / 0.6°C 57% 29.90 in / 1012.4 hPa 10.0 miles / 16.1 kilometers Variable 2.3 mph / 3.7 km/h - N/A   Mostly Cloudy
2:58 PM 46.6°F / 8.1°C 28.9°F / -1.7°C 50% 29.90 in / 1012.5 hPa 10.0 miles / 16.1 kilometers North 5.8 mph / 9.3 km/h - N/A   Clear
3:58 PM 45.0°F / 7.2°C 28.9°F / -1.7°C 53% 29.90 in / 1012.5 hPa 10.0 miles / 16.1 kilometers NE 3.5 mph / 5.6 km/h - N/A   Clear
4:58 PM 42.1°F / 5.6°C 29.3°F / -1.5°C 61% 29.91 in / 1012.8 hPa 10.0 miles / 16.1 kilometers NE 2.3 mph / 3.7 km/h - N/A   Clear
5:58 PM 38.1°F / 3.4°C 28.9°F / -1.7°C 70% 29.93 in / 1013.5 hPa 10.0 miles / 16.1 kilometers Calm Calm - N/A   Clear
6:58 PM 31.1°F / -0.5°C 28.2°F / -2.1°C 89% 29.94 in / 1013.6 hPa 10.0 miles / 16.1 kilometers South 2.3 mph / 3.7 km/h - N/A   Clear
7:58 PM 30.0°F / -1.1°C 28.2°F / -2.1°C 93% 29.94 in / 1013.9 hPa 10.0 miles / 16.1 kilometers SSE 1.2 mph / 1.9 km/h - N/A   Clear
8:58 PM 28.6°F / -1.9°C 26.6°F / -3.0°C 92% 29.96 in / 1014.3 hPa 10.0 miles / 16.1 kilometers SE 1.2 mph / 1.9 km/h - N/A   Clear
9:58 PM 27.7°F / -2.4°C 26.1°F / -3.3°C 94% 29.96 in / 1014.5 hPa 10.0 miles / 16.1 kilometers South 3.5 mph / 5.6 km/h - N/A   Clear
10:58 PM 27.7°F / -2.4°C 26.8°F / -2.9°C 96% 29.97 in / 1014.8 hPa 10.0 miles / 16.1 kilometers South 1.2 mph / 1.9 km/h - N/A   Clear
11:58 PM 26.8°F / -2.9°C 25.5°F / -3.6°C 95% 29.98 in / 1015.2 hPa 10.0 miles / 16.1 kilometers Calm Calm - N/A   Clear
Moon Phase
Nov. 09 Nov. 13 Nov. 20 Nov. 28 Dec. 06
Sunrise:07:05 AM (PST) Moon Rise:01:52 AM (PST)11/9
Sunset:04:41 PM (PST) Moon Set:02:12 PM (PST)11/9

Copyright © 2014 The Weather Underground, Inc.